Craig, CO

5:13 PM MST on February 19, 2017 (GMT -0700)
Craig-Moffat

Weather History for KCAG - November, 2013

Change the Weather History Date:

Thursday, November 14, 2013

  Actual Average Record
Temperature  
Mean Temperature 37 °F 31 °F  
Max Temperature 51 °F 44 °F 65 °F (2016)
Min Temperature 22 °F 18 °F -5 °F (2000)
Degree Days  
Heating Degree Days 28 34  
Month to date heating degree days 436 432  
Since 1 July heating degree days 1326 1477  
Cooling Degree Days 0 0  
Month to date cooling degree days 0 0  
Year to date cooling degree days 377 142  
Moisture  
Dew Point 26 °F    
Average Humidity 62    
Maximum Humidity 92    
Minimum Humidity 32    
Precipitation  
Precipitation T in 0.05 in 0.12 in (2005)
Month to date precipitation 0.35 0.75  
Year to date precipitation 11.86 14.36  
Sea Level Pressure  
Sea Level Pressure 30.07 in    
Wind  
Wind Speed 2 mph (SW)    
Max Wind Speed 13 mph    
Max Gust Speed 16 mph    
Visibility 10 miles    
Events Rain    
T = Trace of Precipitation, MM = Missing Value Source: NWS Daily Summary

Daily Weather History Graph

Daily Weather History Graph

Search for Another Location

Airport or City:

Trip Planner

Search our weather history database for the weather conditions in past years. The results will help you decide how hot, cold, wet, or windy it might be!

Date:

Astronomy

Nov. 14, 2013 Rise Set
Actual Time 6:55 AM MST 4:53 PM MST
Civil Twilight 6:26 AM MST 5:22 PM MST
Nautical Twilight 5:53 AM MST 5:55 PM MST
Astronomical Twilight 5:21 AM MST 6:27 PM MST
Moon 3:16 PM MST (11/14) 3:53 AM MST (11/14)
Length of Visible Light 10h 56m
Length of Day
9h 57m
Waxing Gibbous, 92% of the Moon is Illuminated
Nov 14
Waxing Gibbous
Nov 17
Full
Nov 25
Last Quarter
Dec 2
New
Dec 9
First Quarter

Hourly Weather History & Observations

Time (MST) Temp. Windchill Dew Point Humidity Pressure Visibility Wind Dir Wind Speed Gust Speed Precip Events Conditions
12:53 AM 39.0 °F 34.0 °F 34.0 °F 82% 30.13 in 10.0 mi South 6.9 mph - 0.00 in Rain Light Rain
1:53 AM 37.9 °F - 33.1 °F 83% 30.15 in 10.0 mi Calm Calm - 0.00 in   Overcast
2:53 AM 35.1 °F 31.0 °F 32.0 °F 89% 30.17 in 10.0 mi WSW 4.6 mph - N/A   Overcast
3:53 AM 30.9 °F - 28.9 °F 92% 30.19 in 10.0 mi Calm Calm - N/A   Scattered Clouds
4:53 AM 28.0 °F 22.8 °F 26.1 °F 92% 30.23 in 10.0 mi NW 4.6 mph - N/A   Scattered Clouds
5:53 AM 27.0 °F - 25.0 °F 92% 30.27 in 10.0 mi Calm Calm - N/A   Scattered Clouds
6:53 AM 24.1 °F - 21.9 °F 91% 30.27 in 10.0 mi Calm Calm - N/A   Clear
7:53 AM 27.0 °F - 25.0 °F 92% 30.28 in 10.0 mi Calm Calm - N/A   Clear
8:53 AM 32.0 °F - 28.9 °F 88% 30.27 in 10.0 mi Calm Calm - N/A   Clear
9:53 AM 39.9 °F - 30.9 °F 70% 30.21 in 10.0 mi Calm Calm - N/A   Clear
10:53 AM 44.1 °F - 30.0 °F 58% 30.14 in 10.0 mi Calm Calm - N/A   Clear
11:53 AM 46.0 °F - 28.9 °F 51% 30.09 in 10.0 mi Calm Calm - N/A   Clear
12:53 PM 48.0 °F - 23.0 °F 37% 30.03 in 10.0 mi SSE 3.5 mph - N/A   Clear
1:53 PM 50.0 °F - 21.9 °F 33% 29.98 in 10.0 mi SSW 4.6 mph - N/A   Clear
2:53 PM 50.0 °F - 21.0 °F 32% 29.95 in 10.0 mi WSW 8.1 mph - N/A   Clear
3:53 PM 46.9 °F - 19.9 °F 34% 29.97 in 10.0 mi West 5.8 mph - N/A   Clear
4:53 PM 41.0 °F - 24.1 °F 51% 29.99 in 10.0 mi Calm Calm - N/A   Clear
5:53 PM 37.0 °F - 24.1 °F 59% 30.01 in 10.0 mi Calm Calm - N/A   Clear
6:53 PM 32.0 °F - 23.0 °F 69% 30.02 in 10.0 mi Calm Calm - N/A   Clear
7:53 PM 34.0 °F 27.2 °F 24.1 °F 67% 29.96 in 10.0 mi East 8.1 mph - N/A   Clear
8:53 PM 30.9 °F - 24.1 °F 76% 29.93 in 10.0 mi Calm Calm - N/A   Clear
9:53 PM 28.0 °F - 23.0 °F 81% 29.89 in 10.0 mi Calm Calm - N/A   Clear
10:53 PM 28.9 °F - 23.0 °F 78% 29.85 in 10.0 mi Calm Calm - N/A   Clear
11:53 PM 27.0 °F 21.6 °F 23.0 °F 85% 29.83 in 10.0 mi West 4.6 mph - N/A   Clear